Theta_e
307 306 307 308 307 306 305 301 294 293 292 292 292 292 292 292 294 298 300 301 300 301 301 302 303 304 303 303 304 304 306 309 310 312 311 312 311 311 311 311 313 314 314 314 315 316 319 311 309 311 312 308 308 309
306 307 308 307 306 305 304 299 292 292 292 292 291 291 292 292 297 297 298 301 301 301 301 302 302 302 303 303 303 303 305 306 308 311 311 312 311 311 310 314 312 313 313 315 312 315 311 310 309 306 307 308 309 310
306 308 307 306 305 304 298 294 292 292 292 292 292 291 292 294 296 298 298 299 300 301 301 303 306 305 305 304 304 304 304 306 308 306 307 309 309 310 314 313 312 311 311 313 312 312 312 311 309 310 308 309 310 311
308 307 307 306 305 303 293 292 292 292 292 292 292 292 292 293 295 297 297 300 301 301 301 305 304 306 306 305 304 304 307 307 307 306 307 308 311 310 313 313 313 312 311 312 312 311 311 311 310 310 309 309 309 312
308 307 306 305 304 300 292 292 292 292 292 292 292 292 293 295 296 297 295 298 299 301 303 303 303 306 306 306 305 305 305 306 305 306 308 309 308 311 311 312 314 311 311 313 315 310 311 310 309 307 308 308 308 311
307 306 305 304 304 296 292 292 292 292 292 292 292 293 294 295 298 299 301 303 303 301 301 305 306 306 307 308 307 306 305 305 303 306 308 309 309 311 313 315 312 310 310 311 311 311 309 309 307 306 307 307 309 310
307 306 305 304 302 293 292 291 292 291 292 292 292 293 294 295 297 299 303 303 303 302 301 303 306 308 307 309 307 306 305 305 305 306 308 310 311 310 312 315 312 310 310 311 311 309 310 309 307 306 306 306 308 308
307 306 305 303 297 292 291 291 291 291 292 292 293 294 299 302 301 300 302 302 301 301 302 305 307 309 308 311 311 308 308 306 307 309 310 313 312 312 314 313 311 310 310 310 310 310 310 309 306 305 305 307 307 307
306 305 304 299 292 291 291 291 291 291 292 292 293 297 302 303 302 303 304 304 304 301 302 305 307 311 308 310 311 310 309 310 309 310 311 313 313 314 314 312 310 310 311 310 309 311 309 308 306 305 305 306 306 306
306 303 299 292 291 290 290 290 292 292 292 293 294 302 305 304 303 303 303 303 301 301 301 304 306 308 308 309 310 311 310 312 314 313 312 314 314 311 312 311 310 311 311 309 310 310 309 308 306 304 304 305 306 305
302 296 292 290 290 290 290 292 294 291 293 295 294 297 299 300 302 304 305 306 303 304 303 304 306 306 307 309 310 309 311 312 314 314 314 312 314 314 314 312 310 311 311 310 310 309 309 307 305 304 304 304 305 305
293 291 290 290 290 290 289 293 293 293 295 293 292 293 296 299 302 304 306 306 308 308 308 308 308 306 308 309 310 311 311 312 312 311 313 313 313 313 311 311 311 311 310 310 309 309 308 306 304 304 303 302 303 304
290 290 289 289 289 289 290 291 292 290 290 295 296 297 299 301 303 303 305 305 308 309 309 308 309 306 306 307 310 311 313 313 310 312 312 313 313 313 312 312 311 311 310 311 310 308 307 305 304 303 302 302 302 302
289 289 289 289 290 289 290 290 289 290 294 295 297 300 301 303 303 305 306 307 308 309 308 308 309 307 307 309 310 313 312 311 313 313 312 312 311 313 311 311 311 311 310 311 310 307 306 305 304 303 302 301 300 300
289 289 289 289 289 289 289 289 289 292 294 294 297 299 301 302 303 303 304 305 306 306 307 307 308 306 303 306 309 312 313 314 314 315 312 311 313 313 312 311 311 311 310 310 310 307 305 305 304 303 301 300 299 298
289 289 289 289 289 289 290 290 292 293 292 294 295 297 298 299 300 300 301 302 303 303 302 304 307 310 311 310 312 313 314 317 316 314 311 311 314 313 312 312 312 311 310 310 310 308 306 304 304 303 301 300 298 297
288 290 289 289 290 291 291 292 293 293 294 295 297 297 297 298 299 300 300 301 300 301 304 307 309 309 306 309 311 313 316 315 312 312 312 311 312 313 313 312 312 311 310 311 310 308 306 304 304 304 302 300 298 297
289 290 290 290 290 292 293 294 294 294 294 295 296 296 297 297 298 298 299 300 301 302 304 306 307 310 311 311 312 313 311 312 312 312 312 312 312 313 312 312 311 311 310 311 310 308 306 304 304 304 303 302 301 299
291 290 290 291 291 292 293 294 295 295 295 296 296 296 297 298 298 298 299 299 301 301 302 305 307 308 310 308 307 308 308 309 311 311 311 313 312 312 312 312 312 311 311 311 310 309 307 304 303 304 303 302 301 301
290 291 291 291 291 293 293 294 295 295 296 296 296 297 297 298 298 299 299 299 299 300 304 306 306 304 305 303 303 305 306 307 308 308 310 313 312 313 313 312 312 311 311 311 311 309 307 305 303 303 303 302 301 301
291 291 291 291 292 293 293 294 295 295 296 296 296 297 297 298 299 300 300 300 301 302 303 302 301 301 301 303 305 304 303 303 306 309 309 310 311 312 313 312 313 311 311 311 310 309 308 307 304 302 303 302 300 299
291 291 292 292 293 293 294 294 295 295 295 296 297 297 298 299 299 300 300 300 299 297 298 298 299 300 301 301 301 302 302 303 303 307 308 308 310 311 311 311 312 312 311 311 311 310 309 307 305 303 302 300 300 300
291 292 293 292 293 293 294 295 296 296 297 296 296 298 299 299 299 300 299 296 296 295 295 296 297 298 299 299 299 299 300 302 302 303 305 306 309 310 311 312 311 312 312 312 311 311 309 307 305 304 301 302 300 299
291 292 293 293 293 294 295 295 295 295 295 295 296 297 299 299 298 300 298 296 294 294 294 294 295 296 297 297 298 297 299 301 302 304 303 305 306 309 312 312 312 312 312 312 311 311 310 307 305 304 303 302 302 301
292 291 292 292 293 294 295 296 295 295 295 296 295 298 298 297 300 298 297 295 294 293 292 293 294 295 295 296 296 297 299 299 300 301 301 304 305 307 311 311 311 310 312 312 312 311 309 307 306 305 304 303 303 302
292 292 293 294 295 295 296 295 295 295 296 295 296 297 297 299 298 297 295 293 292 291 292 292 293 294 294 294 295 297 297 298 299 299 299 300 302 304 306 310 311 312 310 311 311 311 309 308 307 306 305 303 303 302
293 293 293 293 294 294 295 295 295 295 295 295 297 297 299 298 298 295 293 291 291 291 292 292 292 292 293 293 295 297 296 298 298 298 298 299 300 300 301 302 304 306 308 309 310 311 310 308 307 306 306 304 303 302
294 294 296 295 295 295 295 295 295 296 296 296 296 297 296 295 294 292 291 290 290 290 290 290 291 291 291 292 292 294 296 296 297 297 297 298 299 300 301 302 303 304 307 307 310 310 310 309 308 307 306 305 303 303
295 295 295 296 295 295 295 296 296 296 295 296 297 297 295 292 290 290 289 289 290 289 290 290 289 289 291 292 291 290 292 294 295 294 293 294 296 298 299 300 301 302 304 304 306 309 310 309 308 307 307 306 304 303
295 295 296 295 295 297 297 297 297 297 296 296 295 293 291 289 288 288 289 288 288 289 289 289 289 288 289 289 290 291 290 291 291 290 290 291 293 295 296 298 300 300 300 300 302 305 307 307 307 307 307 306 304 303
295 295 295 296 296 297 297 297 297 297 296 295 295 295 292 289 288 287 286 288 288 288 288 288 288 287 287 287 288 288 289 289 290 290 291 292 293 294 295 296 297 299 300 300 300 302 303 304 305 305 305 304 303 305
295 296 296 297 297 296 296 297 296 296 296 295 294 292 291 291 291 287 285 285 286 286 286 286 286 286 286 286 287 288 288 288 288 289 289 290 291 292 293 294 295 296 297 299 301 302 301 301 301 303 302 302 302 303
296 296 296 296 296 296 296 295 295 295 294 294 293 292 291 290 289 287 285 285 285 285 285 286 286 286 285 285 285 285 286 286 287 287 287 288 289 289 290 291 293 294 295 295 297 299 300 300 301 301 301 300 300 300
Wind_Speed
21 21 22 24 25 27 27 27 28 26 23 22 20 18 16 12 9 10 10 11 12 12 25 26 23 16 11 8 3 9 11 3 6 3 3 3 3 4 4 10 9 4 5 4 5 5 1 17 14 4 11 23 24 24
20 21 22 23 25 26 28 28 27 26 23 22 21 20 17 13 8 9 14 8 14 20 23 27 30 31 32 29 18 6 6 8 4 3 2 3 3 3 6 4 6 4 5 4 3 4 17 24 17 23 27 25 27 25
19 21 22 23 26 28 28 27 25 24 23 22 21 20 17 14 10 10 15 14 16 18 24 13 5 7 9 11 13 11 9 8 5 3 3 2 5 2 4 4 6 7 3 3 8 5 14 23 19 23 13 17 23 30
19 20 21 25 27 29 27 26 25 23 22 23 22 19 18 16 15 13 15 11 13 10 6 5 5 13 17 15 19 26 11 6 4 3 4 3 3 5 3 9 10 10 10 12 9 12 22 5 18 19 23 19 27 30
18 19 22 26 27 29 26 25 25 24 23 23 22 19 18 16 15 15 15 15 16 14 6 14 30 6 5 9 19 20 25 17 7 3 4 3 4 5 4 5 8 4 10 4 3 19 14 15 20 24 25 24 32 23
19 19 23 26 29 29 27 26 26 25 25 23 22 21 20 18 12 10 5 6 3 14 5 4 8 7 4 5 10 15 19 17 9 5 4 5 8 5 2 4 4 7 11 12 6 16 14 18 20 24 22 23 28 19
19 20 23 27 29 27 26 26 26 25 24 24 23 21 19 15 12 10 4 4 3 7 4 5 5 4 4 6 5 8 13 11 10 5 7 6 9 7 3 8 7 10 11 12 9 13 15 21 24 23 22 21 21 20
20 22 24 28 28 26 25 25 25 25 25 23 22 18 13 9 10 14 8 13 14 9 5 3 4 7 5 5 5 8 8 10 9 5 5 8 3 3 4 5 6 7 10 10 13 9 14 18 23 27 24 21 26 29
21 23 24 26 26 25 23 23 24 25 23 22 18 10 7 4 5 4 4 7 11 14 4 4 2 3 2 4 2 6 7 4 6 4 4 4 3 5 6 4 2 7 9 12 13 11 16 20 23 25 28 25 25 29
23 23 24 24 23 22 21 20 22 24 22 18 10 3 3 4 7 8 5 5 8 9 8 5 9 7 11 5 2 2 5 2 3 6 3 3 5 17 13 5 1 4 8 11 13 15 17 20 21 21 23 23 20 20
22 21 21 20 20 20 19 16 20 24 19 11 7 4 9 8 4 5 5 6 7 4 7 7 14 9 6 5 4 2 2 2 3 3 2 2 4 3 1 8 3 1 5 9 11 12 13 16 19 18 19 21 22 22
19 18 18 18 18 19 17 13 17 16 13 15 16 18 9 4 7 5 4 4 5 4 9 6 5 8 5 7 5 1 3 3 2 1 3 3 3 1 6 5 4 1 4 8 11 12 13 16 18 19 18 17 16 17
16 15 16 16 17 18 17 14 16 18 18 8 3 4 4 5 4 6 6 4 4 5 2 3 3 5 5 8 4 3 3 2 2 3 2 2 2 2 7 5 5 3 4 6 10 11 12 14 17 19 20 18 14 15
14 14 13 14 12 13 14 16 17 15 6 4 4 5 4 4 5 4 6 7 8 3 1 6 3 3 5 5 3 4 3 2 2 2 2 2 3 5 8 5 6 4 3 5 9 11 12 14 15 16 17 17 16 15
12 11 10 9 11 14 16 16 15 9 3 4 4 5 4 7 13 13 12 13 11 10 10 8 7 8 3 3 3 2 5 3 3 2 3 5 1 7 9 7 5 4 2 4 7 10 12 13 15 17 17 17 17 17
8 8 6 9 12 14 15 15 8 3 3 4 5 5 10 13 10 12 11 10 10 11 11 9 4 3 3 1 4 5 3 3 1 2 7 5 2 4 7 7 5 4 5 4 5 9 9 10 13 15 15 17 17 17
5 2 8 10 12 14 12 4 2 1 3 4 4 9 13 15 14 15 14 11 11 14 6 4 4 3 3 1 1 2 3 1 4 7 6 4 1 6 6 7 6 6 5 7 5 6 5 7 11 12 14 15 17 18
1 4 7 9 10 10 3 3 1 2 3 7 10 14 17 16 17 16 14 13 9 6 7 5 8 3 1 2 2 5 10 14 8 8 10 8 1 7 9 8 9 7 6 5 6 5 3 7 11 11 10 11 13 17
2 4 4 7 8 6 3 2 2 4 5 12 11 15 15 15 16 14 13 11 8 7 8 6 5 3 4 7 11 14 15 16 16 15 14 7 2 6 9 10 9 11 10 8 7 5 4 7 9 7 8 9 12 13
1 2 5 6 4 1 1 2 3 4 5 8 13 14 19 14 12 11 11 8 8 5 4 3 4 7 6 11 16 13 14 16 15 20 15 8 5 2 8 11 11 11 10 10 8 6 5 6 6 6 6 7 10 12
2 5 5 2 2 1 1 3 3 5 8 8 13 17 12 11 8 7 6 5 3 3 4 5 10 14 13 12 10 10 12 16 13 12 14 12 9 8 6 7 11 12 13 12 13 11 9 6 6 7 6 7 9 13
1 5 4 4 2 0 2 2 6 10 5 10 12 12 9 9 8 12 14 11 7 11 13 19 17 16 14 15 14 14 16 18 14 11 10 9 12 11 8 5 10 13 14 14 13 14 13 12 10 9 8 10 9 10
1 3 2 2 1 1 3 4 3 5 4 10 12 6 5 6 10 13 5 10 10 18 21 22 17 15 13 13 13 14 18 19 18 16 14 11 12 13 11 9 10 13 15 14 14 13 14 15 15 11 10 10 9 11
5 2 2 1 1 1 4 2 3 5 5 6 5 6 6 7 12 5 4 6 13 18 22 24 24 23 21 21 23 22 21 21 18 15 17 16 12 8 8 8 9 8 13 14 15 16 16 16 17 14 12 11 10 10
2 2 2 1 2 1 2 2 3 3 3 9 4 3 4 5 2 3 3 10 18 19 22 23 25 22 20 21 24 26 20 19 16 17 17 15 15 8 5 4 6 12 8 14 16 18 19 19 19 17 16 15 13 12
2 4 4 3 2 2 1 2 2 5 5 3 2 5 4 3 4 4 5 13 15 18 21 23 21 21 20 20 23 27 26 17 12 17 16 16 14 11 9 5 1 3 4 10 14 18 20 21 21 21 19 19 18 15
3 4 5 4 2 2 3 2 4 2 2 2 3 4 2 3 3 3 6 11 15 17 17 16 15 15 15 18 20 20 22 16 9 6 12 19 22 17 13 8 3 3 5 7 12 16 19 21 22 23 21 20 21 18
3 5 4 6 4 2 2 1 2 2 2 1 4 3 2 2 2 4 5 11 12 13 13 13 14 13 14 14 17 20 19 20 19 15 11 16 16 24 18 14 6 3 5 4 9 13 17 20 21 22 22 22 22 21
5 6 5 5 4 4 5 4 3 2 2 3 1 1 3 2 1 3 5 10 10 11 12 14 17 16 14 13 15 19 22 22 23 25 25 27 29 26 23 21 18 12 3 5 5 12 13 16 20 21 19 16 18 19
7 9 5 4 4 4 4 5 3 4 5 3 2 6 5 4 4 4 4 7 9 10 11 12 14 16 17 17 16 17 21 24 25 23 21 21 23 24 24 19 16 16 15 11 6 2 13 15 19 20 21 21 21 21
8 7 5 5 3 3 3 4 5 5 5 6 8 9 9 8 6 7 8 8 7 8 9 11 12 15 15 17 18 17 17 22 24 24 24 22 21 22 20 22 19 14 11 12 13 3 4 7 10 12 14 18 22 25
9 8 6 4 4 2 3 2 3 2 4 5 4 6 8 7 4 2 10 8 7 8 9 10 11 13 13 12 13 15 16 18 20 22 24 25 25 24 23 21 20 22 16 12 8 7 3 4 3 4 6 10 14 19
8 8 7 4 3 3 1 3 1 3 2 3 3 4 5 4 4 3 5 10 10 10 8 8 9 8 11 12 13 13 14 14 15 17 18 20 21 22 23 23 22 19 18 19 15 10 7 6 2 0 0 1 2 5
Wind_Direction
315 317 321 324 328 329 330 331 330 326 327 329 325 320 318 313 285 268 268 268 255 268 278 272 268 257 248 230 247 304 315 196 283 318 323 346 284 341 303 312 301 306 328 314 295 275 341 346 325 239 328 305 298 297
312 317 320 324 326 327 328 329 329 326 326 326 324 320 316 307 306 302 273 271 277 260 266 282 275 264 256 255 256 239 268 320 283 283 295 301 292 295 314 304 333 309 349 308 240 298 283 292 292 283 281 278 287 289
308 316 320 322 324 326 327 327 328 325 324 325 323 318 314 310 293 264 272 278 284 285 296 273 289 266 233 216 220 220 245 220 223 240 299 283 270 288 287 299 310 296 355 270 306 288 315 319 331 321 320 301 307 301
307 315 319 321 322 325 327 327 327 325 324 323 321 320 316 310 297 277 268 261 260 278 279 282 290 292 277 249 229 221 232 227 257 274 250 256 260 227 271 286 293 285 313 318 287 286 314 318 340 332 327 328 316 319
308 315 319 322 322 323 325 326 324 323 323 321 319 318 319 313 309 300 277 260 244 231 292 299 301 270 278 216 226 226 226 235 275 274 230 249 247 264 245 262 260 334 340 312 287 303 315 327 342 333 323 325 318 328
305 309 320 320 320 321 323 324 324 322 321 318 314 310 307 300 293 311 303 235 242 223 266 285 301 289 238 238 232 218 217 224 227 246 248 238 242 258 269 272 324 330 338 324 292 315 331 342 342 333 325 324 327 339
305 305 316 315 318 319 321 322 322 323 320 318 314 310 305 287 253 218 267 240 265 202 250 280 273 219 224 191 166 190 198 205 214 231 226 236 251 190 247 275 351 338 342 337 338 341 344 349 349 342 338 335 344 7
302 306 314 312 317 318 320 319 321 321 322 321 316 312 301 281 252 256 275 243 232 217 246 262 269 259 192 210 195 184 192 205 217 242 248 251 218 228 259 247 310 335 348 350 335 346 345 350 354 346 346 350 6 11
299 305 309 312 316 318 319 319 319 321 326 322 320 309 292 249 205 255 230 257 266 211 252 237 253 290 229 259 235 190 198 221 212 224 233 263 236 230 256 316 310 353 358 347 342 354 356 1 356 349 350 358 8 15
299 305 310 313 316 317 321 321 321 324 330 330 332 305 247 226 247 279 268 214 196 207 230 245 226 255 297 291 290 217 188 263 238 217 201 235 254 256 261 258 309 346 359 355 1 2 357 0 1 356 353 351 9 14
299 307 311 315 314 316 321 327 322 329 343 353 336 282 279 271 263 227 243 213 187 221 218 232 233 232 240 228 258 259 298 252 262 116 262 308 274 341 206 179 200 3 18 13 4 1 8 1 359 360 2 358 3 23
300 311 313 315 313 314 316 320 322 338 324 306 294 291 288 248 232 228 220 222 213 242 184 228 194 205 239 215 231 157 253 223 265 20 260 236 275 101 157 159 146 87 40 21 17 9 13 12 8 2 13 10 6 15
302 309 314 317 314 313 318 319 328 334 327 310 293 265 230 212 244 228 212 209 215 216 174 149 210 199 208 219 209 226 236 247 332 242 257 277 66 172 173 163 149 116 59 27 20 22 21 23 19 18 14 18 23 29
300 309 317 317 321 331 332 330 329 333 329 278 260 251 230 206 243 249 274 345 337 317 173 283 241 221 202 200 233 234 169 184 239 235 243 43 338 182 173 153 146 128 72 38 22 31 30 27 36 36 29 36 38 36
300 316 317 317 318 325 325 319 321 318 269 269 257 252 236 315 311 308 307 310 317 325 334 323 265 173 185 220 242 263 190 212 213 248 28 16 218 168 171 173 160 125 104 73 40 35 33 34 39 39 36 38 44 45
312 318 323 324 321 325 323 316 322 255 246 259 254 289 294 313 321 321 330 337 335 325 310 271 281 260 205 223 199 203 171 211 330 350 5 13 192 181 167 171 175 150 133 110 50 48 35 44 48 43 40 44 49 53
319 316 321 327 337 341 340 355 352 273 268 272 274 309 296 302 308 315 318 312 310 302 285 283 229 275 122 26 324 251 223 164 52 7 12 4 207 197 183 181 189 177 151 140 115 70 46 57 62 49 43 45 47 53
318 305 327 340 347 355 12 29 343 268 270 276 298 319 319 304 297 294 299 305 304 294 299 305 312 282 219 273 16 16 355 334 320 5 360 346 310 191 187 176 181 184 192 154 129 123 83 66 60 51 45 47 50 50
301 334 342 348 352 9 18 352 303 295 296 316 309 315 313 310 298 290 294 295 289 295 295 288 271 331 10 16 349 342 344 341 328 317 329 323 252 186 196 207 203 187 180 175 163 143 106 71 74 64 56 58 65 61
352 356 331 336 4 51 332 271 291 280 284 316 311 324 323 313 319 313 305 276 251 245 239 328 12 353 350 341 328 323 327 313 315 312 324 3 28 237 214 193 192 190 178 172 172 156 120 100 104 89 83 79 78 72
183 317 321 76 82 130 260 313 283 289 304 305 325 326 326 326 343 338 2 325 168 25 8 26 359 359 358 346 0 344 344 342 329 303 299 306 323 331 235 194 187 187 186 182 176 177 166 164 151 131 111 100 90 86
350 21 73 65 92 302 283 288 295 308 290 297 321 333 319 329 357 19 8 36 53 14 9 2 359 358 357 359 4 8 357 355 351 338 326 303 301 296 262 227 195 199 198 198 193 182 177 177 164 152 143 127 111 101
89 89 86 62 53 245 290 316 296 330 295 320 326 330 358 341 342 344 74 29 35 11 14 17 20 27 17 8 1 5 6 1 356 358 355 338 308 293 274 250 216 221 210 205 202 190 182 179 174 159 152 136 133 124
119 108 124 109 16 304 320 298 311 305 285 328 329 327 5 348 335 36 70 35 1 4 11 14 19 18 18 16 12 8 8 8 1 7 6 355 333 303 289 251 227 222 220 202 191 187 187 177 177 171 163 155 147 142
166 134 145 226 201 263 255 324 323 294 306 336 322 340 1 328 15 58 39 9 359 3 5 9 13 15 11 8 9 7 8 6 8 17 6 16 5 345 320 282 220 212 205 200 194 188 185 183 180 180 176 172 167 163
164 173 171 178 183 230 293 314 290 322 327 317 324 350 0 339 50 46 22 354 352 358 5 8 2 1 7 10 7 9 2 2 19 31 15 24 22 39 36 20 85 178 208 205 204 195 189 188 185 184 183 183 182 174
159 192 186 208 235 253 260 257 293 285 283 308 356 335 343 67 62 49 359 358 356 359 0 359 4 7 360 5 15 11 11 8 21 38 24 40 39 36 36 40 45 232 202 199 202 202 200 197 193 190 187 187 191 186
195 182 188 181 204 201 229 243 240 239 254 299 320 23 57 42 36 352 345 343 357 355 356 6 11 19 12 12 13 15 21 28 38 47 42 39 41 31 30 34 7 288 161 193 211 213 208 204 199 195 192 192 192 193
193 182 187 199 192 193 209 224 245 229 263 283 288 79 119 112 22 343 343 350 355 0 7 10 12 18 21 21 19 18 23 24 23 25 20 22 27 26 26 21 14 16 14 86 220 190 205 204 199 195 199 212 205 195
180 175 181 186 198 211 190 199 251 256 244 252 159 132 118 112 61 36 17 10 9 8 6 9 10 17 19 20 22 24 28 32 30 21 9 5 5 13 21 25 19 13 8 19 30 174 201 197 203 212 213 205 194 199
158 172 184 204 224 217 232 250 276 269 241 230 232 201 161 150 124 52 35 20 8 8 13 17 16 18 19 23 22 21 22 26 27 30 29 27 24 23 22 27 31 36 11 354 4 28 146 178 187 193 196 201 206 218
183 189 181 205 204 234 272 252 301 257 204 177 146 143 144 150 130 87 18 31 30 22 18 19 19 19 17 20 25 27 28 21 21 24 26 29 30 28 26 27 31 34 39 34 31 34 96 119 158 197 216 219 227 225
195 194 203 237 211 216 189 316 261 131 123 106 84 90 84 87 83 104 32 27 29 21 17 25 21 18 20 26 28 30 31 29 27 27 24 25 24 28 30 31 31 30 30 39 46 45 33 30 32 98 192 255 239 241